Regional Weather Roundup
Issued by NWS

Home | Current Version | Previous Version | Graphics & Text | Print | Product List | Glossary On
Versions: 1 2 3 4 5 6 7 8 9 10 11 12 13 14 15 16 17 18 19 20 21 22 23 24 25 26 27 28 29 30 31 32 33 34 35 36 37 38 39 40 41 42 43 44 45 46 47 48 49 50
000
ASUS43 KLOT 190306
RWRIL

ILLINOIS REGIONAL WEATHER ROUNDUP
NATIONAL WEATHER SERVICE CHICAGO/ROMEOVILLE IL
1000 PM CDT FRI APR 18 2014

NOTE: "FAIR" INDICATES FEW OR NO CLOUDS BELOW 12,000 FEET WITH NO
SIGNIFICANT WEATHER AND/OR OBSTRUCTIONS TO VISIBILITY.

* THESE STATIONS ARE NOT UNDER NWS QUALITY CONTROL. THEY ALSO MAY NOT
  REPORT WEATHER SUCH AS PRECIPITATION OR FOG.

ILZ001-002-007-009-015-016-024-190400-
NORTHWEST ILLINOIS

CITY           SKY/WX    TMP DP  RH WIND       PRES   REMARKS
MOLINE         CLEAR     47  32  56 E6        30.27R
STERLING*      CLEAR     46  37  71 E17       30.31R
SAVANNA*       CLEAR     50  32  50 E10       30.29S
$$

ILZ003-004-008-010-011-017-018-190400-
NORTH CENTRAL ILLINOIS

CITY           SKY/WX    TMP DP  RH WIND       PRES   REMARKS
ROCKFORD       CLEAR     41  31  67 E13G20    30.36R
FREEPORT*      CLEAR     44  38  79 E10       30.35R
ROCHELLE*      CLEAR     40  32  72 E13       30.34R
DE KALB*       CLEAR     37  30  76 NE13      30.36R WCI  28
PERU*          CLEAR     45  35  67 E15G21    30.33R
$$

ILZ005-006-012>014-019>023-190400-
NORTHEAST ILLINOIS

CITY           SKY/WX    TMP DP  RH WIND       PRES   REMARKS
CHICAGO-OHARE  CLEAR     38  26  62 NE9       30.38R WCI  31
CHICAGO-MIDWAY CLEAR     40  30  67 NE9       30.38R
AURORA         CLEAR     39  28  64 NE20      30.35R WCI  29
LANSING*       CLEAR     38  29  71 NE9G16    30.37S WCI  31
WAUKEGAN       CLEAR     35  26  69 N9        30.38R WCI  28
DUPAGE AIRPORT CLEAR     37  28  70 NE9       30.36R WCI  30
KANKAKEE*      CLEAR     38  32  78 NE15      30.34S WCI  30
WHEELING       CLEAR     38  28  67 NE9       30.39R WCI  31
MORRIS*        CLEAR     41  30  64 E7        30.35R
ROMEOVILLE*    CLEAR     39  29  68 NE16      30.35S WCI  30
NORTHERLY ISL    N/A     38  31  76 N9          N/A  WCI  31
$$

LMZ740>746-190400-
SOUTHERN LAKE MICHIGAN

STATION/POSITION SKY/WX   TEMP    WIND        PRES    VSBY  WAVE
                          AIR SEA DIR/SP/G                  HT/PER
                          (F)     (DEG/KT/KT) (MB)    (MI)  (FT/S)
WAUKEGAN HARBOR            37      10/ 14/ 17 1029.8R
HARRISON CRIB              37      10/ 11/ 13   N/A
BURNHAM HARBOR             38      20/ 10/ 15   N/A
CALUMET HARBOR             38      10/  9/ 12 1029.1F
MICHIGAN CITY              38      20/ 13/ 16   N/A
$$

ILZ025>027-034>036-040-047-049-050-058-095>099-190400-
WEST-CENTRAL ILLINOIS

CITY           SKY/WX    TMP DP  RH WIND       PRES   REMARKS
QUINCY         CLEAR     57  29  34 E6        30.24R
GALESBURG*     CLEAR     51  34  51 E7        30.26S
MACOMB*        CLEAR     47  33  59 E3        30.28R
JACKSONVILLE*  CLEAR     51  33  50 CALM      30.26R
PITTSFIELD*    CLEAR     57  30  35 NE5       30.26R
$$

ILZ028>032-037-038-041>044-048-051>054-059>061-190400-
CENTRAL ILLINOIS

CITY           SKY/WX    TMP DP  RH WIND       PRES   REMARKS
PONTIAC        CLEAR     45  36  70 E20       30.32R
BLOOMINGTON    CLEAR     46  36  68 NE12      30.31R
DECATUR        CLEAR     49  37  63 NE13      30.27R
PEORIA         CLEAR     56  34  43 E13       30.28R
LACON*         CLEAR     48  38  67 E15       30.30R
LINCOLN*       CLEAR     51  31  45 NE10      30.28R
SPRINGFIELD    CLEAR     53  31  42 NE6       30.26R
TAYLORVILLE    CLEAR     52  36  54 CALM      30.26R
$$

ILZ033-039-045-046-055>057-062-063-190400-
EAST-CENTRAL ILLINOIS

CITY           SKY/WX    TMP DP  RH WIND       PRES   REMARKS
CHAMPAIGN      CLEAR     51  38  60 NE17      30.29R
RANTOUL*       CLEAR     50  37  60 NE10      30.32R
MATTOON        CLEAR     53  39  59 NE3       30.26R
PARIS*         CLEAR     54  40  59 NE7       30.29R
$$

ILZ079-100>102-190400-
SOUTHWEST ILLINOIS

CITY           SKY/WX    TMP DP  RH WIND       PRES   REMARKS
ALTON          CLEAR     57  37  47 CALM      30.26R
BELLEVILLE     CLEAR     52  45  77 N2        30.24R
CAHOKIA*       CLEAR     57  45  64 CALM      30.24R
SPARTA*        CLEAR     59  43  55 N5        30.24S
$$

ILZ064>066-069>071-074>076-080>082-084>086-088>090-092>094-190400-
SOUTH-CENTRAL ILLINOIS

CITY           SKY/WX    TMP DP  RH WIND       PRES   REMARKS
CARBONDALE     CLEAR     55  43  63 N3        30.22R
CAIRO*         PTCLDY    63  44  51 NE3       30.21R
MARION         CLEAR     54  46  76 CALM      30.23R
MT. VERNON     CLEAR     50  37  62 N5        30.24R
CENTRALIA*       N/A     54  45  69 CALM      30.24S
SALEM*         CLEAR     55  48  76 NE3       30.25R
METROPOLIS*    PTCLDY    59  40  48 CALM      30.21R
$$

ILZ067-068-072-073-078-083-087-091-190400-
SOUTHEAST ILLINOIS

CITY           SKY/WX    TMP DP  RH WIND       PRES   REMARKS
FAIRFIELD*     CLEAR     59  46  63 N5        30.23S
HARRISBURG*    CLEAR     57  44  60 N5        30.23S
ROBINSON*      CLEAR     55  47  74 N5        30.25R
CARMI*         PTCLDY    57  48  71 N3        30.22S
$$

ABBREVIATIONS USED IN REMARKS
   TC - TEMPERATURE IN CELSIUS
  WCI - WIND CHILL INDEX
   HX - HEAT INDEX
  VSB - VISIBILITY
$$




USA.gov is the U.S. government's official web portal to all federal, state and local government web resources and services.